Showing default

NAVSPASUR ROD 1, 1515

Orbit data source: Space-Track

NAVSPASUR ROD 1, 1515 is a payload satellite owned by NRL (US) in LEO that was launched on Fri, 13 Aug 1965 UTC via a THOR ABLESTAR launch vehicle from the Air Force Western Test Range (AFWTR). Payload-class satellites include a variety of spacecraft equipped with specific instruments for various scientific and technological missions. These include communications satellites like Starlink; space stations such as the ISS; scientific satellites like the Hubble; Earth observation satellites from companies like Planet Labs, Umbra, and HawkEye 360; GPS; miniature CubeSats for education and research; and military/defense satellites.

Loading next visibility...
Identifier
1515, 1965-065G
Orbit
LEO
Country
Flag of USUS
Related business
Manufacturer
NRL
Mission
Defense Calibration
Bus & Motor
LONG ROD, Unknown motor
Mass
3 kg wet, 3 kg dry
Launch date (UTC)
1965-08-13 (60 years ago)
Launch vehicle
THOR ABLESTAR
Launch site
Air Force Western Test Range (AFWTR)
Object type
Payload
Rocket body
Debris
Shape & HBR
Sphere, 0.2 m
Radar Cross Section
0.126 m², Small (<0.1 m²)

Expand to show TLE details & history
Last TLE update: 11 hours ago

TLE from 11 hours ago
0 NAVSPASUR ROD 1
1 01515U 65065G   25260.83884311  .00000393  00000-0  59022-3 0  9991
2 01515  90.0063 213.8072 0061295  25.7160  35.2890 13.50690281943557
Epoch: 2025-09-17T20:07Z
TLE epoch observation values (Epoch: 2025-09-17T20:07:56.044Z)
Latitude
61.50168°
Longitude
-85.1969°
Altitude
1,043.147 km
Speed
7.354 km/s
True Right ascension
14h 15m 10s
True Declination
61° 21' 46"
Sunlit
Object was in daylight at epoch
Visualization orbit readout
Latitude
Unknown
Longitude
Unknown
Altitude
Unknown
Speed
Unknown
Apparent Right ascension
Unknown
Apparent Declination
Unknown
Sunlit
N/A
Visualization observer readout
Local Sidereal Time
23:53:45
Azimuth
Unknown
Elevation
Unknown
Doppler factor
Unknown
Orbital elements
Apogee altitude
1,112.402 km
Perigee altitude
1,021.135 km
Semi-major axis
7,444.906 km
Eccentricity
0.00613
Inclination
90.0063°
RAAN
213.8072°
Arg. of periapsis
25.716°
True anomaly
35.69732°
Mean anomaly
35.289°
Eccentric anomaly
35.4929°
Mean motion
3.37874 °/min
Orbital period
106.55 mins
BSTAR
0.00059022
Loading maneuver chart data...
Computing Atmospheric mass density...
Loading historical data...
Loading historical data...
Loading historical data...
Loading historical data...
Loading historical data...
Loading historical data...
Loading historical data...

Documentation

Showing up to 5 results
|